Regional Weather Roundup
Issued by NWS Jackson, KY

Home | Current Version | Previous Version | Text Only | Print | Product List | Glossary Off
Versions: 1 2 3 4 5 6 7 8 9 10 11 12 13 14 15 16 17 18 19 20 21 22 23 24 25 26 27 28 29 30 31 32 33 34 35 36 37 38 39 40 41 42 43 44 45 46 47 48 49 50

000
ASUS43 KJKL 212010
RWRJKL

EAST KENTUCKY HOURLY WEATHER ROUNDUP
NATIONAL WEATHER SERVICE JACKSON KY
400 PM EDT THU MAY 21 2015

NOTE: "FAIR" INDICATES FEW OR NO CLOUDS BELOW 12,000 FEET WITH
NO SIGNIFICANT WEATHER AND/OR OBSTRUCTIONS TO VISIBILITY.

* THESE REPORTS ARE NOT UNDER NWS QUALITY CONTROL AND MAY NOT
  REPORT WEATHER SUCH AS PRECIPITATION AND FOG.

KYZ079-080-083-085-087-088-110-112-115-119-120-212100
...EASTERN KENTUCKY...

CITY           SKY/WX    TMP DP  RH WIND       PRES   REMARKS
JACKSON        CLOUDY    52  49  89 VRB5      30.05S FOG
LONDON         CLOUDY    55  47  74 NW14      30.07R
SOMERSET*      CLOUDY    55  48  76 NW6       30.10S
MONTICELLO*    CLOUDY    55  51  86 W10       30.13R
MIDDLESBORO*   CLOUDY    58  51  75 CALM      30.05F
HARLAN APT*    CLOUDY    55  48  76 NW6       30.04S
HAZARD APT*    CLOUDY    54  52  94 W7        30.05R FOG
BLACK MTN*       N/A     48  48 100 CALM        N/A
PIKEVILLE APT* LGT RAIN  52  50  93 NW9G17    30.02R
BIG SANDY*     DRIZZLE   53  51  95 NW5       30.03R
MOREHEAD APT*  MOCLDY    52  50  93 VRB5      30.08R FOG
$$

KYZ035-036-041-042-044-050-067-078-099-212100
...CENTRAL KENTUCKY...

CITY           SKY/WX    TMP DP  RH WIND       PRES   REMARKS
MT STERLING*   CLOUDY    54  46  76 N9        30.08S
FLEMING/MASON* CLOUDY    52  46  82 NW13G18   30.08R
DANVILLE*      CLOUDY    54  46  76 NW12      30.11R
RICHMOND*      CLOUDY    52  46  82 NW13      30.08S
LEXINGTON      CLOUDY    52  47  83 NW10G17   30.09S
FRANKFORT      CLOUDY    55  43  63 N10       30.09R
$$

KYZ091>093-OHZ055-061-077-WVZ005-015-034-035-042-212100
...SOUTHERN OHIO/WEST VIRGINIA...

CITY           SKY/WX    TMP DP  RH WIND       PRES   REMARKS
COVINGTON      CLOUDY    56  40  55 NW13      30.09R
COLUMBUS       CLOUDY    57  41  55 NW13      30.01R
DAYTON         CLOUDY    55  42  61 W14       30.07R
WILMINGTON     CLOUDY    55  37  50 NW17      30.05R
HUNTINGTON     CLOUDY    53  49  86 NW8G17    30.01R
CHARLESTON     LGT RAIN  53  51  93 W9        29.99R VSB 1
PINEVILLE*     CLOUDY    56  54  94 MISG      30.03R
BECKLEY        CLOUDY    54  50  86 W12       29.96R
BLUEFIELD      CLOUDY    58  52  80 W12       29.97S
$$

VAZ002-007-008-TNZ017-027-036-066-071-212100
...SOUTHWEST VIRGINIA/EAST TENNESSEE...

CITY           SKY/WX    TMP DP  RH WIND       PRES   REMARKS
WISE*          CLOUDY    59  50  72 NW9G16    30.03R
JONESVILLE*    CLOUDY    59  52  77 W9        30.05S
ABINGDON*      PTSUNNY   71  55  56 W14       29.96R
BRISTOL        PTSUNNY   68  52  56 W14G23    29.98R
KNOXVILLE      PTSUNNY   68  51  54 W15       30.02S
OAK RIDGE      CLOUDY    65  50  58 W10       30.06R
CROSSVILLE     CLOUDY    53  47  79 NW10      30.10S
NASHVILLE      CLOUDY    57  48  72 N7        30.15F
$$

...KEY TO REMARKS...
VSB - VISIBILITY IN MILES
WCI - WIND CHILL INDEX
HX  - HEAT INDEX

$$


USA.gov is the U.S. government's official web portal to all federal, state and local government web resources and services.